C/2018 U1 ( Lemmon )

Japanese version
Home page
Updated on May 31, 2021

---------------------------------------------------------------------

* Profile

Discovery Date October 27, 2018
Magnitude 20.0 mag
Discoverer R. A. Kowalski (Mount Lemmon Survey)

* Pictures

* Orbital Elements

Epoch 2021 Nov. 2.0 TT = JDT 2459520.5
T 2021 Nov. 3.07865 TT                                  Rudenko
q   4.9929780            (2000.0)            P               Q
z  -0.0002756      Peri.  180.46380     -0.25316343     -0.30190567
 +/-0.0000010      Node    75.48039     -0.88450863     +0.45705822
e   1.0013759      Incl.  108.29881     -0.39185809     -0.83663059
From 1691 observations 2018 Oct. 27-2021 May 2, mean residual 0".9.

* Finding Charts

* Magnitudes Graph

        m1 = 4.5 + 5 log d + 10.0 log r

---------------------------------------------------------------------

The orbital elements are published on M.P.E.C. 2021-J28.
The charts are made with StellaNavigator Ver.10 (AstroArts).
The magnitudes graphs are made with Comet for Windows.

---------------------------------------------------------------------

Copyright(C) Seiichi Yoshida (comet@aerith.net). All rights reserved.